Weather in Primorsky

Russia / Republic of Crimea     45°07′09″N   35°28′54″E
temp.,
°C
wind,
m/s
gust,
m/s
humid.,
%
clouds,
%
prec.,
mm/h
press.,
hPa
HPBL,
m
19 january, wed
wed1900:00−1nw9106668 0.0 10181180
03:00−1nw996867 0.0 10191049
06:00−1nw9107487 0.0 10201064
09:00−2nw9108171 0.1 10221014
12:00−1nw101070100 0.1 10221251
15:00−1nw101071100 0.1 10211214
18:00−1nw10117091 0.1 10221235
21:00−1nw9107494 0.1 10231064
20 january, thu
thu2000:00−1nw887373 0.1 1023964
03:00−2nw78715 0.1 1023748
06:00−2nw67645 0.0 1023664
09:00−1nw45516 0.0 1023494
12:00+2sw554739 0.0 1022807
15:00+3ssw55525 0.0 1020666
18:00+4ssw486121 0.0 1018561
21:00+6sw121369100 0.1 10161336
21 january, fri
fri2100:00+7sw131673100 0.1 10151517
03:00+7sw14158193 0.4 10131336
06:00+8sw101179100 0.4 1012777
09:00+7wsw8973100 0.4 1012622
12:00+6nw5774100 0.2 1014729
15:00+5nw7967100 0.8 1014957
18:00+3nnw7869100 0.2 1015871
21:00+2nw6970100 0.9 1016990
22 january, sat
sat2200:00+2nw7958100 0.2 10161141
03:00+2nw475298 0.2 1016807
06:00+2wnw2444100 0.0 1015981
09:00+3wsw2242100 0.0 10161036
12:00+2ssw4365100 0.1 1015908
15:00+1s3391100 1.6 1014404
18:000n7891100 6.8 1015546
21:00+1ne7781100 7.4 1015664
23 january, sun
sun2300:00+2nne6770100 0.1 1015726
03:00+1nne6786100 0.1 1014632
06:00+1nne8986100 0.3 1014753
09:00+1nne81096100 1.1 1013703
12:00+1nne91095100 1.3 1014743
15:00+2nne91091100 2.1 1014765
18:00+1nne111392100 0.9 1015977
21:00+1n101188100 1.4 1016835